TimePDT,TemperatureF,Dew PointF,Humidity,Sea Level PressureIn,VisibilityMPH,Wind Direction,Wind SpeedMPH,Gust SpeedMPH,PrecipitationIn,Events,Conditions,WindDirDegrees,DateUTC
12:53 AM,44.1,39.0,82,29.83,10.0,ESE,8.1,-,N/A,,Overcast,120,2011-03-15 07:53:00
1:53 AM,46.0,37.9,73,29.80,10.0,SE,10.4,21.9,0.01,Rain,Light Rain,140,2011-03-15 08:53:00
2:53 AM,45.0,39.9,82,29.78,5.0,SSE,12.7,-,0.05,Rain,Light Rain,150,2011-03-15 09:53:00
3:53 AM,44.6,39.2,81,29.71,5.0,SE,8.1,19.6,N/A,Rain,Light Rain,140,2011-03-15 10:53:00
4:53 AM,45.0,41.0,86,29.70,10.0,Variable,6.9,-,0.02,Rain,Light Rain,0,2011-03-15 11:53:00
5:53 AM,46.9,39.9,77,29.70,10.0,SSE,12.7,18.4,0.01,,Overcast,150,2011-03-15 12:53:00
6:53 AM,48.0,41.0,77,29.72,10.0,SSE,15.0,23.0,0.00,,Overcast,160,2011-03-15 13:53:00
7:53 AM,50.0,41.0,71,29.72,10.0,SSE,15.0,-,0.00,,Overcast,160,2011-03-15 14:53:00
8:53 AM,50.0,42.1,74,29.71,10.0,South,12.7,21.9,N/A,,Overcast,170,2011-03-15 15:53:00
9:53 AM,51.1,42.1,71,29.69,10.0,South,16.1,21.9,N/A,,Mostly Cloudy,170,2011-03-15 16:53:00
10:53 AM,52.0,41.0,66,29.67,10.0,South,15.0,19.6,N/A,,Scattered Clouds,170,2011-03-15 17:53:00
11:46 AM,48.2,44.6,87,29.67,2.5,South,13.8,24.2,0.08,Rain,Rain,190,2011-03-15 18:46:00
11:53 AM,48.9,44.1,83,29.69,3.0,SSW,13.8,28.8,0.08,Rain,Light Rain,210,2011-03-15 18:53:00
12:01 PM,46.4,42.8,87,29.65,3.0,South,16.1,23.0,N/A,Rain,Rain,180,2011-03-15 19:01:00
12:53 PM,51.1,45.0,80,29.63,10.0,SSE,16.1,25.3,0.03,,Overcast,160,2011-03-15 19:53:00
1:53 PM,53.1,43.0,69,29.63,10.0,SW,19.6,28.8,0.01,Rain,Light Rain,220,2011-03-15 20:53:00
1:59 PM,46.4,42.8,87,29.62,5.0,SW,12.7,28.8,0.02,Rain,Light Rain,230,2011-03-15 20:59:00
2:04 PM,46.4,41.0,81,29.62,1.8,WSW,15.0,21.9,N/A,Rain,Heavy Rain,240,2011-03-15 21:04:00
2:12 PM,44.6,42.8,93,29.61,3.0,SW,18.4,24.2,0.14,Rain-Thunderstorm,Rain,230,2011-03-15 21:12:00
2:29 PM,46.4,42.8,87,29.59,3.0,South,12.7,23.0,0.20,Rain,Light Rain,180,2011-03-15 21:29:00
2:53 PM,48.9,42.1,77,29.60,10.0,SSW,10.4,-,0.20,Rain,Light Rain,200,2011-03-15 21:53:00
3:11 PM,46.4,42.8,87,29.61,1.8,SSW,24.2,33.4,0.06,Rain,Rain,200,2011-03-15 22:11:00
3:25 PM,46.4,41.0,81,29.60,10.0,South,20.7,34.5,0.11,Rain,Rain,190,2011-03-15 22:25:00
3:53 PM,46.0,41.0,83,29.59,10.0,South,16.1,28.8,0.13,,Overcast,170,2011-03-15 22:53:00
4:00 PM,46.4,41.0,81,29.58,10.0,South,18.4,-,N/A,,Mostly Cloudy,170,2011-03-15 23:00:00
4:21 PM,46.4,41.0,81,29.59,10.0,South,19.6,32.2,N/A,,Overcast,180,2011-03-15 23:21:00
4:53 PM,46.9,41.0,80,29.60,10.0,South,19.6,27.6,N/A,,Overcast,180,2011-03-15 23:53:00
5:00 PM,46.4,42.8,87,29.59,10.0,South,19.6,27.6,N/A,,Overcast,170,2011-03-16 00:00:00
5:44 PM,46.4,41.0,81,29.59,10.0,South,19.6,28.8,N/A,,Overcast,170,2011-03-16 00:44:00
5:53 PM,46.0,41.0,83,29.59,10.0,South,16.1,27.6,N/A,,Overcast,170,2011-03-16 00:53:00
6:18 PM,44.6,39.2,81,29.60,9.0,South,18.4,27.6,0.00,Rain,Light Rain,170,2011-03-16 01:18:00
6:29 PM,44.6,39.2,81,29.60,10.0,South,20.7,33.4,0.01,,Overcast,170,2011-03-16 01:29:00
6:53 PM,44.1,39.9,85,29.61,10.0,South,20.7,31.1,0.01,,Overcast,170,2011-03-16 01:53:00
7:53 PM,44.6,39.2,81,29.64,10.0,South,21.9,29.9,N/A,Rain,Light Rain,170,2011-03-16 02:53:00
8:48 PM,44.6,39.2,81,29.65,10.0,South,19.6,26.5,0.02,Rain,Light Rain,180,2011-03-16 03:48:00
8:53 PM,44.6,39.2,81,29.65,10.0,South,17.3,26.5,N/A,Rain,Light Rain,180,2011-03-16 03:53:00
9:53 PM,44.1,39.0,82,29.67,10.0,South,17.3,26.5,0.00,Rain,Light Rain,170,2011-03-16 04:53:00
10:48 PM,42.8,39.2,87,29.68,5.0,South,20.7,28.8,0.05,Rain,Rain,180,2011-03-16 05:48:00
10:53 PM,43.0,39.0,86,29.68,5.0,South,17.3,26.5,0.06,Rain,Rain,180,2011-03-16 05:53:00
11:53 PM,43.0,37.9,82,29.70,10.0,South,19.6,28.8,0.01,Rain,Light Rain,180,2011-03-16 06:53:00